Location: Celina Division
(33.3022°N, 96.7580°W)
Time: 07:21:39
(UTC+00:00)

Meteor 2-15 Rocket - Pass Details

Date: 08 December 2021
Orbit: 939 x 956 km, 82.5° (Epoch: 17 January)

Event Time Altitude Azimuth Distance (km) Brightness Sun altitude
Rises 12:06:38 0° 351° (N) 3,606 7.2 -14.7°
Reaches altitude 10° 12:09:08 10° 350° (N) 2,658 6.5 -14.2°
Maximum altitude 12:15:11 77° 266° (W) 963 4.4 -13.0°
Drops below altitude 10° 12:21:13 10° 181° (S) 2,643 7.0 -11.8°
Sets 12:23:41 0° 179° (S) 3,585 7.7 -11.4°
